Flag for Fiji Weather past 2 weeks in Lautoka, Fiji

Now
90 °F

Scattered clouds.


Feels Like: 100 °F
Forecast: 82 / 88 °F
Wind: 10 mph from West

Location: Nandi

Current Time: Mar 1, 2015 at 11:34:48 AM

Latest Report: Mar 1, 2015 at 11:00 AM


Visibility: N/A

Pressure: 29.77 "Hg

Humidity: 63%

Dew point: 75 °F

Location of LautokaLocation

Historic Weather in Lautoka — Graph

°F

Lautoka temperature yesterday

Maximum temperature yesterday: 90 °F (at 1:00 PM)
Minimum temperature yesterday: 77 °F (at 1:00 AM)
Average temperature yesterday: 82 °F

Past Weeks' High & Low Weather Summary

 TemperatureHumidityPressure
High91 °F (Feb 15, 12:00 PM)100% (Feb 14, 9:00 PM)29.89 "Hg (Feb 14, 9:00 PM)
Low73 °F (Feb 18, 6:00 AM)62% (Feb 16, 12:00 PM)29.65 "Hg (Feb 24, 4:00 PM)
Average81 °F86%29.74 "Hg
* Reported Feb 14 10:00 AM — Mar 1 10:00 AM, Lautoka, Weather by CustomWeather, © 2015

Note: Actual official high and low records may vary slightly from our data, if they occured in-between our weather recording intervals... More about our weather records

Advertising

Lautoka weather history for previous 24 hours

 ConditionsComfort  
Time TempWeatherWind HumidityBarometerVisibility
10:00 AM
Sun, Mar 1
88 °FScattered clouds.3 mph66%29.80 "HgN/A
9:00 AM86 °FPartly sunny.3 mph75%29.80 "HgN/A
8:00 AM84 °FScattered clouds.3 mph74%29.77 "HgN/A
7:00 AM77 °FPassing clouds.6 mph94%29.77 "HgN/A
6:00 AM77 °FPassing clouds.2 mph94%29.74 "HgN/A
5:00 AM77 °FPassing clouds.5 mph94%29.74 "HgN/A
4:00 AM77 °FPassing clouds.No wind94%29.74 "HgN/A
3:00 AM77 °FPassing clouds.2 mph94%29.74 "HgN/A
2:00 AM79 °FPassing clouds.2 mph89%29.77 "HgN/A
1:00 AM79 °FPartly cloudy.No wind94%29.77 "HgN/A
12:00 AM81 °FPassing clouds.3 mph84%29.80 "HgN/A
11:00 PM
Sat, Feb 28
79 °FPassing clouds.3 mph94%29.80 "HgN/A
10:00 PM81 °FPassing clouds.6 mph84%29.80 "HgN/A
9:00 PM82 °FPassing clouds.7 mph84%29.77 "HgN/A
8:00 PM82 °FPassing clouds.5 mph79%29.77 "HgN/A
7:00 PM84 °FPassing clouds.8 mph74%29.71 "HgN/A
6:00 PM86 °FBroken clouds.12 mph75%29.71 "HgN/A
5:00 PM88 °FBroken clouds.12 mph70%29.68 "HgN/A
4:00 PM90 °FScattered clouds.14 mph67%29.68 "HgN/A
3:00 PM90 °FBroken clouds.14 mph67%29.68 "HgN/A
2:00 PM90 °FBroken clouds.14 mph63%29.68 "HgN/A
1:00 PM90 °FBroken clouds.12 mph67%29.71 "HgN/A
12:00 PM88 °FBroken clouds.3 mph75%29.74 "HgN/A
11:00 AM86 °FBroken clouds.6 mph75%29.74 "HgN/A
Weather by CustomWeather, © 2015

See weather overviewHow to use our weather pages